Regional Weather Roundup
Issued by NWS

Home | Current Version | Previous Version | Text Only | Print | Product List | Glossary On
Versions: 1 2 3 4 5 6 7 8 9 10 11 12 13 14 15 16 17 18 19 20 21 22 23 24 25 26 27 28 29 30 31 32 33 34 35 36 37 38 39 40 41 42 43 44 45 46 47 48 49 50
000
ASUS42 KKEY 300110
RWRKEY

FLORIDA REGIONAL WEATHER ROUNDUP FOR THE FLORIDA KEYS
NATIONAL WEATHER SERVICE KEY WEST FLORIDA
900 PM EDT FRI AUG 29 2014

...SOUTH FLORIDA AND THE KEYS...

CITY           SKY/WX    TMP DP  RH WIND       PRES   REMARKS
FORT MYERS     CLOUDY    75  69  81 NE9       30.07R
SW REGIONAL AP CLOUDY    77  68  73 NE5       30.07R
NAPLES         CLOUDY    79  72  79 NE7       30.06R
MIAMI          PTCLDY    86  75  69 E10       30.06R HX  95
WEST KENDALL   CLEAR     84  76  76 E8        30.06R HX  93
HOMESTEAD      CLEAR     84  77  78 E7        30.06R HX  94
MARATHON       CLEAR     86  77  74 E10       30.04R HX  97
BOCA CHICA NAS PTCLDY    87  77  72 E14       30.03R HX  99
KEY WEST INTL  PTCLDY    87  76  69 E13       30.04R HX  97

...INTERNATIONAL WEATHER...

CITY           SKY/WX    TMP DP  RH WIND       PRES   REMARKS
NASSAU BAHAMAS MOCLDY    86  75  70 E12       30.08R HX  95
CANCUN MEXICO  PTCLDY    82  77  83 E3        29.93R HX  91
COZUMEL MEXICO PTCLDY    75  75 100 CALM      29.92R

ADJACENT COASTAL WATERS...

STATION/POSITION TIME  SKY/WX   TEMP    WIND        PRES    WAVE
                                AIR SEA DIR/SP/G            HT/PER
                 (UTC)          (F)     (DEG/KT/KT) (MB)    (FT/S)
PULASKI SHOAL LI 0100            87     110/ 18/ 19 1016.5R
SAND KEY         0100            86      90/ 17/ 20 1016.7R
SOMBRERO KEY     0100            86     100/ 18/ 19 1017.7R
LONG KEY         0100            86 88  120/ 12/ 13 1018.1R
MOLASSES REEF    0100            86 88   70/ 11/ 12 1017.7R
FOWEY ROCKS      0100            86 87   80/ 11/ 12 1018.4R
Buoy 42080       NOT AVBL

$$


USA.gov is the U.S. government's official web portal to all federal, state and local government web resources and services.